QPF
0.00 0.00 0.00 0.00 0.00 0.00 0.00 0.00 0.00 0.00 0.00 0.00 0.00 0.00 0.00 0.00 0.00 0.00 0.00 0.00 0.00 0.00 0.00 0.00 0.00 0.00 0.00
0.00 0.00 0.00 0.00 0.00 0.00 0.00 0.00 0.00 0.00 0.00 0.00 0.00 0.00 0.00 0.00 0.00 0.00 0.00 0.00 0.00 0.00 0.00 0.00 0.01 0.00 0.00
0.00 0.00 0.00 0.00 0.00 0.00 0.00 0.00 0.00 0.00 0.00 0.00 0.00 0.00 0.00 0.00 0.00 0.00 0.00 0.00 0.00 0.00 0.00 0.00 0.05 0.05 0.01
0.00 0.00 0.00 0.00 0.00 0.00 0.00 0.00 0.00 0.00 0.00 0.00 0.00 0.00 0.00 0.00 0.00 0.00 0.00 0.00 0.00 0.00 0.00 0.00 0.01 0.06 0.02
0.00 0.00 0.00 0.00 0.00 0.00 0.00 0.00 0.00 0.00 0.00 0.00 0.00 0.00 0.00 0.00 0.00 0.00 0.00 0.00 0.00 0.00 0.00 0.00 0.00 0.04 0.12
0.00 0.00 0.00 0.00 0.00 0.00 0.00 0.00 0.00 0.00 0.00 0.00 0.00 0.00 0.00 0.00 0.00 0.00 0.00 0.00 0.00 0.00 0.00 0.00 0.00 0.00 0.02
0.00 0.00 0.00 0.00 0.00 0.00 0.00 0.00 0.00 0.00 0.00 0.00 0.00 0.00 0.00 0.00 0.00 0.00 0.00 0.00 0.00 0.00 0.00 0.00 0.00 0.00 0.00
0.00 0.00 0.00 0.00 0.00 0.00 0.00 0.00 0.00 0.00 0.00 0.00 0.00 0.00 0.00 0.00 0.00 0.00 0.00 0.00 0.00 0.00 0.00 0.00 0.00 0.00 0.00
0.00 0.00 0.00 0.00 0.00 0.00 0.00 0.00 0.00 0.00 0.00 0.00 0.00 0.00 0.00 0.00 0.00 0.00 0.00 0.00 0.00 0.00 0.00 0.00 0.00 0.00 0.00
0.00 0.00 0.00 0.00 0.00 0.00 0.00 0.00 0.00 0.00 0.00 0.00 0.00 0.00 0.00 0.00 0.00 0.00 0.00 0.00 0.00 0.00 0.00 0.00 0.00 0.00 0.00
0.00 0.00 0.00 0.00 0.00 0.00 0.00 0.00 0.00 0.00 0.00 0.00 0.00 0.00 0.00 0.00 0.00 0.00 0.00 0.00 0.00 0.00 0.00 0.00 0.00 0.00 0.00
0.00 0.00 0.00 0.00 0.00 0.00 0.00 0.00 0.00 0.00 0.00 0.00 0.00 0.00 0.00 0.00 0.00 0.00 0.00 0.00 0.00 0.00 0.00 0.00 0.00 0.00 0.00
0.00 0.00 0.00 0.00 0.00 0.00 0.00 0.00 0.00 0.00 0.00 0.00 0.00 0.00 0.00 0.00 0.00 0.00 0.00 0.00 0.00 0.00 0.00 0.00 0.00 0.00 0.00
0.00 0.00 0.00 0.00 0.00 0.00 0.00 0.00 0.00 0.00 0.00 0.00 0.00 0.00 0.00 0.00 0.00 0.00 0.00 0.00 0.00 0.00 0.00 0.00 0.00 0.00 0.00
0.00 0.00 0.00 0.00 0.00 0.00 0.00 0.00 0.00 0.00 0.00 0.00 0.00 0.00 0.00 0.00 0.00 0.00 0.00 0.00 0.00 0.00 0.00 0.00 0.00 0.00 0.00
0.00 0.00 0.00 0.00 0.00 0.00 0.00 0.00 0.00 0.00 0.00 0.00 0.00 0.00 0.00 0.00 0.00 0.00 0.00 0.00 0.00 0.00 0.00 0.00 0.00 0.00 0.00
0.00 0.00 0.00 0.00 0.00 0.00 0.00 0.00 0.00 0.00 0.00 0.00 0.00 0.00 0.00 0.00 0.00 0.00 0.00 0.00 0.00 0.00 0.00 0.00 0.00 0.00 0.00
MSLP
1018.64 1019.02 1019.33 1019.77 1020.05 1020.39 1020.22 1020.50 1020.58 1020.65 1020.46 1020.59 1020.42 1020.60 1020.50 1020.88 1020.53 1020.26 1020.01 1019.78 1019.24 1019.01 1018.58 1018.19 1017.50 1017.20 1015.86
1018.53 1019.35 1019.51 1019.80 1019.89 1020.42 1020.51 1020.65 1020.73 1020.58 1020.33 1020.49 1020.43 1020.76 1020.46 1020.57 1020.64 1020.63 1020.57 1020.07 1019.65 1019.05 1018.91 1018.28 1017.87 1017.08 1015.39
1018.07 1018.80 1019.36 1019.63 1020.24 1020.39 1020.40 1020.68 1020.49 1020.47 1020.50 1020.42 1020.29 1020.29 1020.44 1020.59 1020.53 1020.20 1020.41 1020.20 1019.62 1019.15 1018.90 1018.61 1018.18 1017.11 1015.21
1017.72 1018.48 1019.05 1019.55 1019.78 1020.21 1020.36 1020.53 1020.61 1020.42 1020.64 1020.64 1020.52 1020.44 1020.25 1020.56 1020.40 1020.37 1020.34 1020.06 1019.77 1019.24 1019.09 1018.72 1018.50 1017.63 1016.28
1017.36 1018.12 1018.68 1019.10 1019.34 1019.74 1020.13 1020.61 1020.52 1020.22 1020.33 1020.71 1020.68 1020.66 1020.61 1020.66 1020.47 1020.31 1020.31 1020.15 1019.92 1019.51 1019.23 1019.07 1018.77 1018.57 1017.94
1017.09 1017.32 1017.70 1018.19 1018.49 1018.90 1019.61 1020.31 1020.60 1020.21 1020.16 1020.23 1020.17 1020.64 1020.24 1020.61 1020.91 1020.75 1019.96 1020.15 1019.94 1019.72 1019.45 1019.42 1018.96 1019.00 1018.74
1016.02 1016.69 1017.13 1017.57 1018.33 1018.98 1019.10 1019.61 1019.75 1020.01 1020.34 1020.21 1020.69 1021.00 1020.81 1020.25 1020.75 1020.54 1020.55 1020.08 1020.14 1019.97 1019.69 1019.70 1019.45 1019.58 1019.39
1014.87 1015.94 1016.07 1016.88 1017.37 1018.15 1018.39 1019.00 1019.84 1019.90 1019.92 1020.64 1021.06 1021.56 1020.98 1021.02 1020.43 1020.43 1020.28 1020.23 1020.17 1019.94 1020.10 1019.90 1019.80 1020.08 1019.87
1014.62 1015.34 1016.14 1016.42 1016.91 1017.70 1018.35 1019.01 1019.23 1019.62 1019.84 1020.12 1020.79 1021.47 1021.51 1020.98 1020.61 1020.31 1020.54 1020.48 1020.25 1020.19 1020.58 1020.27 1020.56 1020.71 1020.43
1015.09 1014.99 1015.42 1016.03 1016.34 1016.53 1017.44 1018.22 1018.39 1019.51 1019.73 1020.20 1020.87 1021.31 1022.12 1021.14 1020.36 1020.68 1021.15 1020.59 1020.28 1020.51 1020.69 1020.58 1020.94 1021.36 1021.26
1014.92 1015.42 1016.08 1016.03 1016.34 1016.38 1016.57 1017.46 1017.87 1018.21 1018.95 1019.66 1021.00 1021.26 1022.48 1021.48 1020.83 1020.98 1021.14 1021.03 1020.81 1021.01 1020.77 1020.85 1021.12 1021.51 1021.72
1014.70 1015.19 1015.80 1016.19 1016.52 1017.05 1016.67 1017.26 1017.36 1017.42 1018.21 1019.31 1020.61 1020.72 1021.76 1021.92 1021.47 1021.21 1021.46 1021.15 1021.03 1021.47 1021.54 1021.19 1021.25 1021.63 1021.59
1014.31 1014.97 1015.22 1015.60 1016.29 1017.10 1017.25 1017.62 1017.73 1017.91 1018.33 1018.95 1019.30 1020.29 1021.04 1021.18 1021.47 1021.43 1021.58 1021.07 1021.17 1021.57 1021.63 1021.56 1021.74 1022.05 1021.93
1013.86 1014.57 1015.01 1015.89 1016.08 1016.43 1017.08 1017.81 1018.39 1018.81 1018.75 1018.77 1019.25 1019.92 1020.96 1020.78 1021.04 1021.24 1020.98 1021.05 1021.15 1021.64 1021.58 1021.62 1021.64 1021.83 1021.87
1013.45 1014.37 1014.82 1015.25 1015.63 1016.04 1016.67 1017.63 1018.30 1018.65 1018.64 1018.95 1019.29 1019.76 1019.91 1020.15 1020.79 1020.76 1020.72 1020.93 1021.06 1021.31 1021.60 1021.77 1021.78 1021.62 1021.57
1012.85 1013.59 1014.14 1014.62 1015.18 1015.88 1016.32 1017.01 1017.69 1018.02 1018.29 1018.78 1019.49 1019.72 1019.81 1019.74 1019.63 1020.15 1020.39 1020.64 1020.79 1021.16 1021.36 1021.86 1021.93 1021.35 1021.25
1012.19 1013.06 1013.66 1014.11 1014.64 1015.27 1015.97 1016.51 1017.05 1017.51 1018.02 1018.52 1019.10 1019.41 1020.23 1019.88 1019.31 1019.16 1019.68 1020.19 1020.60 1021.12 1021.18 1021.42 1021.62 1021.17 1020.90
Thickness
5553 5550 5547 5542 5538 5535 5535 5531 5529 5526 5525 5520 5520 5512 5511 5504 5505 5507 5507 5508 5511 5511 5512 5515 5520 5520 5531
5544 5536 5535 5532 5531 5525 5525 5521 5519 5516 5515 5510 5507 5499 5499 5497 5494 5493 5491 5493 5498 5501 5502 5505 5507 5514 5527
5538 5530 5526 5525 5520 5518 5517 5512 5511 5507 5502 5500 5498 5494 5490 5486 5485 5487 5483 5484 5489 5493 5493 5495 5498 5505 5520
5531 5524 5519 5516 5514 5511 5508 5504 5500 5496 5490 5488 5486 5484 5482 5478 5475 5474 5472 5476 5478 5483 5483 5486 5486 5494 5504
5524 5518 5514 5510 5508 5503 5500 5493 5491 5492 5487 5478 5477 5474 5470 5465 5466 5464 5464 5466 5468 5472 5474 5474 5477 5480 5485
5510 5511 5509 5507 5504 5500 5493 5486 5484 5483 5480 5476 5473 5464 5465 5462 5454 5451 5459 5459 5461 5462 5466 5465 5468 5470 5475
5506 5502 5499 5498 5493 5486 5485 5481 5479 5473 5468 5468 5460 5454 5453 5453 5447 5447 5448 5451 5451 5453 5456 5456 5459 5459 5464
5501 5494 5493 5489 5486 5481 5479 5476 5466 5465 5463 5456 5449 5442 5444 5441 5442 5442 5443 5443 5443 5445 5445 5448 5451 5450 5455
5489 5484 5480 5479 5478 5471 5469 5465 5462 5460 5456 5452 5444 5437 5432 5434 5435 5434 5434 5434 5436 5437 5436 5440 5440 5442 5447
5471 5474 5474 5470 5469 5471 5465 5460 5458 5449 5447 5441 5438 5429 5416 5427 5431 5428 5422 5425 5428 5428 5428 5432 5431 5431 5435
5457 5457 5456 5458 5458 5460 5460 5456 5451 5450 5444 5437 5422 5421 5408 5415 5420 5417 5416 5417 5420 5419 5423 5425 5425 5424 5426
5446 5447 5447 5445 5445 5444 5448 5446 5447 5446 5440 5431 5418 5418 5404 5404 5408 5409 5408 5411 5414 5413 5415 5418 5418 5417 5420
5436 5435 5437 5439 5435 5432 5434 5433 5434 5433 5430 5424 5421 5412 5406 5404 5402 5401 5402 5409 5409 5408 5409 5412 5412 5411 5413
5425 5424 5425 5423 5425 5426 5424 5420 5418 5416 5416 5417 5414 5410 5400 5402 5400 5397 5402 5402 5404 5402 5403 5404 5405 5406 5408
5414 5413 5415 5416 5417 5417 5415 5410 5404 5407 5408 5406 5404 5400 5402 5400 5393 5396 5399 5398 5397 5396 5396 5396 5399 5402 5404
5403 5405 5407 5407 5407 5406 5405 5402 5398 5399 5400 5399 5392 5389 5391 5394 5395 5392 5392 5392 5392 5391 5391 5387 5390 5398 5400
5395 5394 5396 5397 5400 5399 5397 5396 5393 5393 5392 5389 5384 5381 5374 5381 5389 5391 5388 5387 5386 5384 5385 5385 5383 5391 5396